• în România
  • Lista ţărilor
  • Pe 7 zile
  • Temperatura apei
  • Hartă satelitară
  • Meteo pe hartă
  • Widget-uri
  • user-avatar
    Intrare

    Meteo pe oră la Yevlakh

    Astăzi, 18 Octombrie, Joi

    Timp Temperatura Precipitaţii Vânt Presiune Umiditate
    00:00 +18°C° 0 mm 1 m/s 766 mmHg 89%
    01:00 +18°C° 0 mm 1 m/s 765 mmHg 90%
    02:00 +18°C° 0 mm 1 m/s 765 mmHg 90%
    03:00 +16°C° 0 mm 0 m/s 765 mmHg 90%
    04:00 +16°C° 0 mm 0 m/s 765 mmHg 90%
    05:00 +16°C° 0 mm 0 m/s 765 mmHg 90%
    06:00 +16°C° 0 mm 0 m/s 765 mmHg 89%
    07:00 +19°C° 0 mm 1 m/s 765 mmHg 83%
    08:00 +20°C° 0 mm 1 m/s 765 mmHg 78%
    09:00 +21°C° 0 mm 1 m/s 765 mmHg 72%
    10:00 +22°C° 0 mm 1 m/s 764 mmHg 67%
    11:00 +24°C° 0 mm 2 m/s 764 mmHg 62%
    12:00 +25°C° 0 mm 2 m/s 764 mmHg 57%
    13:00 +25°C° 0 mm 2 m/s 763 mmHg 55%
    14:00 +25°C° 0 mm 2 m/s 763 mmHg 53%
    15:00 +26°C° 0 mm 3 m/s 763 mmHg 51%
    16:00 +25°C° 0 mm 2 m/s 763 mmHg 55%
    17:00 +23°C° 0 mm 2 m/s 763 mmHg 60%
    18:00 +21°C° 0 mm 2 m/s 764 mmHg 64%
    19:00 +21°C° 0 mm 2 m/s 764 mmHg 66%
    20:00 +20°C° 0 mm 3 m/s 764 mmHg 68%
    21:00 +20°C° 0 mm 3 m/s 765 mmHg 70%
    22:00 +19°C° 0 mm 3 m/s 765 mmHg 73%
    23:00 +19°C° 0 mm 3 m/s 765 mmHg 76%

    Mâine, 19 Octombrie, Vineri

    Timp Temperatura Precipitaţii Vânt Presiune Umiditate
    00:00 +18°C° 0 mm 2 m/s 765 mmHg 79%
    01:00 +18°C° 0 mm 2 m/s 765 mmHg 81%
    02:00 +17°C° 0 mm 2 m/s 765 mmHg 82%
    03:00 +18°C° 0 mm 1 m/s 765 mmHg 84%
    04:00 +18°C° 0 mm 1 m/s 765 mmHg 84%
    05:00 +18°C° 0 mm 1 m/s 765 mmHg 85%
    06:00 +16°C° 0 mm 1 m/s 765 mmHg 85%
    07:00 +19°C° 0 mm 1 m/s 765 mmHg 81%
    08:00 +20°C° 0 mm 1 m/s 765 mmHg 76%
    09:00 +21°C° 0 mm 1 m/s 765 mmHg 72%
    10:00 +21°C° 0 mm 2 m/s 764 mmHg 67%
    11:00 +23°C° 0 mm 2 m/s 764 mmHg 63%
    12:00 +24°C° 0 mm 2 m/s 763 mmHg 58%
    13:00 +25°C° 0 mm 2 m/s 763 mmHg 56%
    14:00 +25°C° 0 mm 2 m/s 763 mmHg 54%
    15:00 +25°C° 0 mm 2 m/s 762 mmHg 52%
    16:00 +24°C° 0 mm 2 m/s 763 mmHg 56%
    17:00 +23°C° 0 mm 2 m/s 763 mmHg 60%
    18:00 +21°C° 0 mm 2 m/s 763 mmHg 64%
    19:00 +21°C° 0 mm 2 m/s 763 mmHg 66%
    20:00 +20°C° 0 mm 2 m/s 763 mmHg 69%
    21:00 +20°C° 0 mm 2 m/s 764 mmHg 72%
    22:00 +19°C° 0 mm 2 m/s 764 mmHg 75%
    23:00 +18°C° 0 mm 2 m/s 763 mmHg 77%

    Poimâine, 20 Octombrie, Sâmbătă

    Timp Temperatura Precipitaţii Vânt Presiune Umiditate
    00:00 +18°C° 0 mm 2 m/s 763 mmHg 80%
    01:00 +18°C° 0 mm 2 m/s 763 mmHg 82%
    02:00 +18°C° 0 mm 1 m/s 763 mmHg 83%
    03:00 +18°C° 0 mm 1 m/s 763 mmHg 84%
    04:00 +18°C° 0 mm 1 m/s 763 mmHg 84%
    05:00 +16°C° 0 mm 1 m/s 763 mmHg 84%
    06:00 +16°C° 0 mm 1 m/s 762 mmHg 84%
    07:00 +19°C° 0 mm 1 m/s 762 mmHg 79%
    08:00 +20°C° 0 mm 1 m/s 762 mmHg 74%
    09:00 +21°C° 0 mm 1 m/s 762 mmHg 69%
    10:00 +22°C° 0 mm 1 m/s 762 mmHg 62%
    11:00 +24°C° 0 mm 1 m/s 761 mmHg 56%
    12:00 +25°C° 0 mm 2 m/s 761 mmHg 50%
    13:00 +25°C° 0 mm 1 m/s 760 mmHg 48%
    14:00 +26°C° 0 mm 1 m/s 760 mmHg 45%
    15:00 +26°C° 0 mm 1 m/s 760 mmHg 43%
    16:00 +25°C° 0 mm 1 m/s 760 mmHg 47%
    17:00 +24°C° 0 mm 1 m/s 760 mmHg 51%
    18:00 +23°C° 0 mm 1 m/s 760 mmHg 55%
    19:00 +22°C° 0 mm 1 m/s 760 mmHg 57%
    20:00 +22°C° 0 mm 1 m/s 761 mmHg 59%
    21:00 +21°C° 0 mm 1 m/s 761 mmHg 61%
    22:00 +21°C° 0 mm 1 m/s 761 mmHg 62%
    23:00 +20°C° 0 mm 1 m/s 760 mmHg 63%

    21 Octombrie, Duminică

    Timp Temperatura Precipitaţii Vânt Presiune Umiditate
    00:00 +20°C° 0 mm 1 m/s 760 mmHg 65%
    01:00 +20°C° 0 mm 1 m/s 760 mmHg 65%
    02:00 +19°C° 0 mm 1 m/s 760 mmHg 66%
    03:00 +19°C° 0 mm 1 m/s 760 mmHg 66%
    04:00 +19°C° 0 mm 1 m/s 760 mmHg 65%
    05:00 +19°C° 0 mm 1 m/s 760 mmHg 64%
    06:00 +19°C° 0 mm 1 m/s 760 mmHg 64%
    07:00 +20°C° 0 mm 1 m/s 760 mmHg 58%
    08:00 +22°C° 0 mm 1 m/s 760 mmHg 52%
    09:00 +24°C° 0 mm 1 m/s 760 mmHg 46%
    10:00 +25°C° 0 mm 1 m/s 759 mmHg 42%
    11:00 +26°C° 0 mm 1 m/s 759 mmHg 37%
    12:00 +27°C° 0 mm 1 m/s 758 mmHg 33%
    13:00 +27°C° 0 mm 1 m/s 758 mmHg 32%
    14:00 +28°C° 0 mm 1 m/s 758 mmHg 30%
    15:00 +28°C° 0 mm 1 m/s 757 mmHg 29%
    16:00 +27°C° 0 mm 1 m/s 757 mmHg 32%
    17:00 +25°C° 0 mm 1 m/s 758 mmHg 36%
    18:00 +24°C° 0 mm 1 m/s 758 mmHg 39%
    19:00 +24°C° 0 mm 1 m/s 758 mmHg 40%
    20:00 +23°C° 0 mm 1 m/s 758 mmHg 41%
    21:00 +23°C° 0 mm 1 m/s 758 mmHg 43%
    22:00 +23°C° 0 mm 1 m/s 758 mmHg 44%
    23:00 +22°C° 0 mm 1 m/s 758 mmHg 45%

    22 Octombrie, Luni

    Timp Temperatura Precipitaţii Vânt Presiune Umiditate
    00:00 +22°C° 0 mm 1 m/s 758 mmHg 46%
    01:00 +22°C° 0 mm 1 m/s 758 mmHg 45%
    02:00 +21°C° 0 mm 1 m/s 758 mmHg 44%
    03:00 +21°C° 0 mm 1 m/s 758 mmHg 44%
    04:00 +21°C° 0 mm 1 m/s 758 mmHg 43%
    05:00 +20°C° 0 mm 2 m/s 758 mmHg 43%
    06:00 +20°C° 0 mm 2 m/s 758 mmHg 43%
    07:00 +21°C° 0 mm 2 m/s 758 mmHg 39%
    08:00 +23°C° 0 mm 2 m/s 758 mmHg 36%
    09:00 +24°C° 0 mm 2 m/s 758 mmHg 32%
    10:00 +25°C° 0 mm 2 m/s 758 mmHg 30%
    11:00 +27°C° 0 mm 2 m/s 758 mmHg 28%
    12:00 +28°C° 0 mm 2 m/s 758 mmHg 26%
    13:00 +28°C° 0 mm 2 m/s 757 mmHg 25%
    14:00 +28°C° 0 mm 2 m/s 757 mmHg 25%
    15:00 +29°C° 0 mm 2 m/s 757 mmHg 25%
    16:00 +27°C° 0 mm 2 m/s 758 mmHg 28%
    17:00 +26°C° 0 mm 1 m/s 758 mmHg 30%
    18:00 +24°C° 0 mm 1 m/s 759 mmHg 33%
    19:00 +24°C° 0 mm 1 m/s 759 mmHg 34%
    20:00 +23°C° 0 mm 1 m/s 759 mmHg 35%
    21:00 +23°C° 0 mm 1 m/s 760 mmHg 36%
    22:00 +23°C° 0 mm 1 m/s 760 mmHg 37%
    23:00 +22°C° 0 mm 1 m/s 760 mmHg 37%

    23 Octombrie, Marţi

    Timp Temperatura Precipitaţii Vânt Presiune Umiditate
    00:00 +22°C° 0 mm 1 m/s 760 mmHg 38%
    01:00 +21°C° 0 mm 1 m/s 760 mmHg 38%
    02:00 +21°C° 0 mm 1 m/s 760 mmHg 39%
    03:00 +20°C° 0 mm 2 m/s 760 mmHg 39%
    04:00 +20°C° 0 mm 2 m/s 760 mmHg 40%
    05:00 +19°C° 0 mm 2 m/s 760 mmHg 40%
    06:00 +19°C° 0 mm 2 m/s 761 mmHg 41%
    07:00 +21°C° 0 mm 2 m/s 761 mmHg 38%
    08:00 +24°C° 0 mm 2 m/s 761 mmHg 34%
    09:00 +25°C° 0 mm 2 m/s 761 mmHg 31%
    10:00 +27°C° 0 mm 2 m/s 760 mmHg 28%
    11:00 +28°C° 0 mm 2 m/s 760 mmHg 26%
    12:00 +29°C° 0 mm 3 m/s 759 mmHg 24%
    13:00 +29°C° 0 mm 3 m/s 759 mmHg 24%
    14:00 +30°C° 0 mm 2 m/s 758 mmHg 24%
    15:00 +30°C° 0 mm 2 m/s 758 mmHg 23%
    16:00 +29°C° 0 mm 2 m/s 758 mmHg 26%
    17:00 +27°C° 0 mm 2 m/s 759 mmHg 28%
    18:00 +26°C° 0 mm 2 m/s 759 mmHg 30%
    19:00 +25°C° 0 mm 2 m/s 759 mmHg 31%
    20:00 +25°C° 0 mm 2 m/s 759 mmHg 32%
    21:00 +25°C° 0 mm 2 m/s 759 mmHg 33%
    22:00 +24°C° 0 mm 2 m/s 759 mmHg 33%
    23:00 +24°C° 0 mm 2 m/s 759 mmHg 34%
    Arată mai mult